Location: Aydie
(43.5695°N, 0.1043°W)
Time: 12:34:19
(UTC+00:00)

Cosmos 2058 - Pass Details

Date: 17 November 2025
Orbit: 529 x 540 km, 82.5° (Epoch: 11 December)

Event Time Altitude Azimuth Distance (km) Brightness Sun altitude
Rises 17:37:29 0° 359° (N) 2,704 6.2 -11.7°
Reaches altitude 10° 17:39:46 10° 7° (N) 1,810 5.2 -12.1°
Maximum altitude 17:43:30 38° 77° (ENE) 831 3.2 -12.7°
Drops below altitude 10° 17:47:13 10° 147° (SSE) 1,801 5.2 -13.4°
Sets 17:49:29 0° 155° (SSE) 2,689 6.2 -13.8°
